SL-8 DEB, 19451

Orbit data source: Space-Track

SL-8 DEB, 19451 is space debris in LEO originally from a launch on Fri, 11 Mar 1988 UTC launched from the Plesetsk Missile And Space Complex (PKMTR). Debris objects in space refer to the collection of defunct objects orbiting the Earth. Examples of debris include non-operational satellites, rocket bodies, and fragments generated from explosions, collisions, or faulty payload assembly.

Loading next visibility...
Identifier
19451, 1988-016K
Orbit
LEO
Country
Flag of CISCIS
Related business
Manufacturer
Unknown
Mission
Spacecraft
Bus & Motor
Unknown
Mass
Unknown
Launch date (UTC)
1988-03-11 (38 years ago)
Launch vehicle
Unknown
Launch site
Plesetsk Missile And Space Complex (PKMTR)
Object type
Payload
Rocket body
Debris
Shape & HBR
Unknown shape, 0.1 m
Radar Cross Section
Small (<0.1 m²)

Expand to show TLE details & history
Last TLE update: 1 day ago

TLE from 1 day ago
0 SL-8 DEB
1 19451U 88016K   25348.24490690  .00000135  00000-0  12908-2 0  9990
2 19451  74.0053 274.8715 0127988 291.9900 221.7701 12.27465066679124
Epoch: 2025-12-14T05:52Z
TLE epoch observation values (Epoch: 2025-12-14T05:52:39.956Z)
Latitude
26.10644°
Longitude
-84.49134°
Altitude
1,639.206 km
Speed
7.021 km/s
True Right ascension
05h 47m 20s
True Declination
25° 59' 09"
Sunlit
Object was in full shadow at epoch
Visualization orbit readout
Latitude
Unknown
Longitude
Unknown
Altitude
Unknown
Speed
Unknown
Apparent Right ascension
Unknown
Apparent Declination
Unknown
Sunlit
N/A
Visualization observer readout
Local Sidereal Time
13:18:48
Azimuth
Unknown
Elevation
Unknown
Doppler factor
Unknown
Orbital elements
Apogee altitude
1,659.628 km
Perigee altitude
1,456.481 km
Semi-major axis
7,936.191 km
Eccentricity
0.0128
Inclination
74.0053°
RAAN
274.8715°
Arg. of periapsis
291.99°
True anomaly
220.80468°
Mean anomaly
221.7701°
Eccentric anomaly
221.28624°
Mean motion
3.06991 °/min
Orbital period
117.27 mins
BSTAR
0.0012908
Loading maneuver chart data...
Computing Atmospheric mass density...
Loading historical data...
Loading historical data...
Loading historical data...
Loading historical data...
Loading historical data...
Loading historical data...
Loading historical data...

Documentation

Showing up to 5 results
|